Retour au catalogue

STARLINK-35476

ActifCommunicationsVLEO
NORAD 66825·PAYLOAD·🇺🇸 United States

Lancé Dec 2, 2025 depuis Vandenberg Space Force Base

Loading…

Prochains Passages (prochaines 24 heures)

TLE

FraisSource: CelesTrak SupGP

Époque: Sep 14, 2026, 22:56 UTC

1 66825C 25280E   26257.95604167 -.00021668  00000+0 -18149-2 0  2570
2 66825  70.0013 217.3854 0003329 264.3150  62.1637 14.98361505    16

Suivez STARLINK-35476 en temps réel avec AllMySat

Download on the App Store